GW2280 Weather Reports


Display with metric or nautical units.
time (UTC)temp
F
wind
direction
speed
MPH
gust
MPH
rain 1hr
in
rain 24hr
in
rain mn
in
humidity
%
barometer
mb
20260906220520 66 322 3.0 15.0 0.00 0.04 0.04 52 1016.5
20260906220034 66 320 6.0 15.0 0.00 0.04 0.04 51 1016.5
20260906215520 67 348 8.0 15.0 0.00 0.04 0.04 50 1016.5
20260906215017 67 328 6.0 13.0 0.00 0.04 0.04 50 1016.5
20260906214542 67 319 8.0 13.0 0.00 0.04 0.04 49 1016.5
20260906214016 67 333 5.0 16.0 0.00 0.04 0.04 52 1016.4
20260906213520 67 5 9.0 16.0 0.00 0.04 0.04 48 1016.4
20260906213034 67 324 7.0 17.0 0.00 0.04 0.04 48 1016.4
20260906212516 67 38 7.0 20.0 0.00 0.04 0.04 47 1016.3
20260906212018 67 331 9.0 20.0 0.00 0.04 0.04 47 1016.3
20260906211536 68 315 10.0 19.0 0.00 0.04 0.04 48 1016.4
20260906211021 68 360 10.0 17.0 0.00 0.04 0.04 47 1016.3
20260906210520 68 292 3.0 16.0 0.00 0.04 0.04 50 1016.4
20260906210038 68 324 7.0 16.0 0.00 0.04 0.04 50 1016.3
20260906205523 68 360 7.0 16.0 0.00 0.04 0.04 48 1016.2
20260906205021 68 345 5.0 16.0 0.00 0.04 0.04 46 1016.3
20260906204537 68 63 7.0 19.0 0.00 0.04 0.04 45 1016.3
20260906204016 69 28 10.0 19.0 0.00 0.04 0.04 45 1016.3
20260906203516 68 355 7.0 14.0 0.00 0.04 0.04 46 1016.3
20260906203035 68 304 6.0 14.0 0.00 0.04 0.04 46 1016.3
20260906202518 68 323 7.0 17.0 0.00 0.04 0.04 45 1016.3
20260906202016 68 15 5.0 17.0 0.00 0.04 0.04 47 1016.2
20260906201559 68 336 7.0 17.0 0.00 0.04 0.04 45 1016.2
20260906201021 68 32 2.0 15.0 0.00 0.04 0.04 45 1016.2
20260906200522 68 0 6.0 18.0 0.00 0.04 0.04 46 1016.2
20260906200036 68 5 7.0 18.0 0.00 0.04 0.04 45 1016.2
20260906195519 68 0 6.0 18.0 0.00 0.04 0.04 45 1016.2
20260906195018 69 18 7.0 18.0 0.00 0.04 0.04 44 1016.2
20260906194534 69 5 9.0 18.0 0.00 0.04 0.04 45 1016.2
20260906194018 69 36 5.0 13.0 0.00 0.04 0.04 46 1016.2
20260906193516 68 46 6.0 19.0 0.00 0.04 0.04 46 1016.3
20260906193041 68 12 7.0 20.0 0.00 0.04 0.04 45 1016.3
20260906192516 68 327 10.0 20.0 0.00 0.04 0.04 44 1016.2
20260906192018 68 336 6.0 13.0 0.00 0.04 0.04 46 1016.2
20260906191534 67 355 5.0 17.0 0.00 0.04 0.04 45 1016.3
20260906191016 68 349 10.0 17.0 0.00 0.04 0.04 44 1016.3
20260906190521 68 338 3.0 17.0 0.00 0.04 0.04 46 1016.4
20260906190037 68 298 5.0 16.0 0.00 0.04 0.04 46 1016.4
20260906185518 68 337 8.0 16.0 0.00 0.04 0.04 44 1016.4
20260906185019 68 0 4.0 19.0 0.00 0.04 0.04 45 1016.4
20260906184535 68 35 7.0 19.0 0.00 0.04 0.04 44 1016.3
20260906184016 69 9 10.0 19.0 0.00 0.04 0.04 43 1016.4
20260906183518 69 319 8.0 18.0 0.00 0.04 0.04 45 1016.4
20260906183037 69 46 5.0 14.0 0.00 0.04 0.04 45 1016.4
20260906182516 69 360 7.0 13.0 0.00 0.04 0.04 45 1016.4
20260906182017 68 360 3.0 17.0 0.00 0.04 0.04 47 1016.5
20260906181543 68 360 7.0 17.0 0.00 0.04 0.04 44 1016.5
20260906181019 68 360 6.0 17.0 0.00 0.04 0.04 45 1016.5
20260906180520 68 360 7.0 15.0 0.00 0.04 0.04 49 1016.5
20260906180037 68 61 1.0 15.0 0.00 0.04 0.04 49 1016.5
20260906175518 68 349 7.0 14.0 0.00 0.09 0.04 50 1016.5
20260906175018 67 342 4.0 18.0 0.00 0.09 0.04 53 1016.5
20260906174537 67 52 6.0 18.0 0.00 0.09 0.04 48 1016.6
20260906174018 67 39 6.0 14.0 0.00 0.09 0.04 49 1016.7
20260906173516 67 52 6.0 13.0 0.00 0.09 0.04 50 1016.7
20260906173036 66 317 2.0 13.0 0.00 0.09 0.04 51 1016.6
20260906172518 66 9 7.0 12.0 0.00 0.09 0.04 50 1016.8
20260906172016 67 323 3.0 14.0 0.00 0.09 0.04 49 1016.8
20260906171534 67 0 6.0 14.0 0.00 0.09 0.04 49 1016.9
20260906171017 66 297 3.0 12.0 0.00 0.09 0.04 53 1016.8
20260906170520 67 313 6.0 12.0 0.00 0.09 0.04 52 1017.0
20260906170036 66 352 2.0 12.0 0.00 0.09 0.04 57 1017.0
20260906165520 66 317 2.0 12.0 0.00 0.09 0.04 58 1017.0
20260906165019 66 302 2.0 12.0 0.00 0.09 0.04 57 1017.1
20260906164539 66 331 3.0 11.0 0.00 0.09 0.04 57 1017.1
20260906164017 66 290 5.0 14.0 0.00 0.09 0.04 56 1017.0
20260906163518 66 123 5.0 14.0 0.00 0.09 0.04 55 1017.1
20260906163046 66 76 2.0 13.0 0.00 0.09 0.04 56 1017.3
20260906162521 65 0 1.0 13.0 0.00 0.09 0.04 53 1017.3
20260906162017 65 352 5.0 13.0 0.00 0.09 0.04 56 1017.4
20260906161539 65 24 5.0 14.0 0.00 0.09 0.04 55 1017.4
20260906161022 65 0 1.0 14.0 0.00 0.09 0.04 57 1017.4
20260906160519 65 32 6.0 12.0 0.00 0.09 0.04 56 1017.5
20260906160036 64 10 1.0 11.0 0.00 0.09 0.04 59 1017.6
20260906155521 64 360 4.0 12.0 0.00 0.09 0.04 57 1017.7
20260906155019 64 352 4.0 19.0 0.00 0.09 0.04 56 1017.9
20260906154540 64 352 9.0 19.0 0.00 0.09 0.04 54 1017.9
20260906154018 64 348 10.0 17.0 0.00 0.09 0.04 56 1017.9
20260906153523 64 44 2.0 13.0 0.00 0.09 0.04 60 1017.8
20260906153036 64 9 5.0 15.0 0.00 0.09 0.04 61 1017.9
20260906152519 64 352 9.0 15.0 0.00 0.09 0.04 64 1017.9
20260906152019 64 23 4.0 9.0 0.00 0.09 0.04 66 1017.9
20260906151538 63 22 2.0 10.0 0.00 0.09 0.04 71 1018.0
20260906151026 62 352 2.0 14.0 0.00 0.09 0.04 69 1018.0
20260906150518 62 32 5.0 14.0 0.00 0.09 0.04 68 1018.1
20260906150037 62 32 4.0 13.0 0.00 0.09 0.04 71 1018.1
20260906145516 62 5 3.0 14.0 0.00 0.09 0.04 75 1018.1
20260906145018 62 5 4.0 17.0 0.00 0.09 0.04 76 1018.0
20260906144538 61 5 8.0 17.0 0.00 0.09 0.04 75 1018.0
20260906144016 61 49 6.0 14.0 0.00 0.09 0.04 77 1018.0
20260906143517 61 360 7.0 13.0 0.00 0.09 0.04 79 1018.0
20260906143033 60 39 6.0 14.0 0.00 0.09 0.04 82 1018.0
20260906142522 60 39 6.0 14.0 0.00 0.09 0.04 85 1018.0
20260906142021 59 352 6.0 12.0 0.00 0.09 0.04 86 1018.0
20260906141538 58 23 5.0 11.0 0.00 0.09 0.04 90 1018.0
20260906141019 57 15 5.0 12.0 0.00 0.09 0.04 91 1018.1
20260906140524 57 25 3.0 12.0 0.00 0.09 0.04 91 1018.2
20260906140038 57 0 5.0 12.0 0.00 0.09 0.04 91 1018.1
20260906135521 58 360 5.0 10.0 0.00 0.09 0.04 91 1018.1
20260906135018 58 360 3.0 10.0 0.00 0.09 0.04 91 1018.1
20260906134534 58 351 3.0 10.0 0.00 0.09 0.04 91 1018.1
20260906134019 59 352 2.0 10.0 0.00 0.09 0.04 92 1018.1
20260906133518 58 315 2.0 10.0 0.00 0.09 0.04 93 1017.9
20260906133049 58 325 3.0 10.0 0.00 0.09 0.04 94 1017.9
20260906132517 58 0 2.0 12.0 0.00 0.09 0.04 94 1017.9
20260906132017 57 88 4.0 13.0 0.00 0.09 0.04 95 1017.9
20260906131538 57 40 5.0 13.0 0.00 0.09 0.04 95 1017.9
20260906131018 56 40 0.0 7.0 0.00 0.09 0.04 96 1017.8
20260906130519 56 343 0.0 7.0 0.00 0.09 0.04 96 1017.8
20260906130037 56 0 4.0 8.0 0.00 0.09 0.04 96 1017.9
20260906125516 56 10 2.0 8.0 0.00 0.09 0.04 96 1017.8
20260906125017 56 0 2.0 8.0 0.00 0.09 0.04 96 1017.8
20260906124534 56 16 0.0 5.0 0.00 0.09 0.04 96 1017.8
20260906124018 55 41 1.0 6.0 0.00 0.09 0.04 96 1017.8
20260906123519 55 0 2.0 8.0 0.00 0.09 0.04 96 1017.9
20260906123044 55 346 2.0 8.0 0.00 0.09 0.04 96 1017.9
20260906122517 56 0 1.0 6.0 0.00 0.09 0.04 96 1017.8
20260906122020 56 0 0.0 6.0 0.00 0.09 0.04 96 1017.9
20260906121545 55 0 2.0 6.0 0.01 0.09 0.04 96 1017.8
20260906121019 55 360 1.0 6.0 0.01 0.09 0.04 96 1017.7
20260906120518 55 360 2.0 6.0 0.01 0.09 0.04 96 1017.7
20260906120035 55 33 2.0 6.0 0.01 0.09 0.04 96 1017.7
20260906115522 55 36 0.0 6.0 0.01 0.09 0.04 96 1017.7
20260906115017 55 0 1.0 7.0 0.01 0.09 0.04 96 1017.8
20260906114539 55 30 0.0 7.0 0.01 0.09 0.04 96 1017.7
20260906114019 55 0 1.0 8.0 0.01 0.09 0.04 96 1017.7
20260906113518 55 49 1.0 8.0 0.01 0.09 0.04 95 1017.7
20260906113036 55 64 3.0 8.0 0.02 0.09 0.04 95 1017.6
20260906112517 55 30 1.0 8.0 0.02 0.09 0.04 95 1017.6
20260906112020 55 42 2.0 8.0 0.02 0.09 0.04 95 1017.6
20260906111538 55 17 2.0 8.0 0.01 0.08 0.03 95 1017.6
20260906111019 55 39 3.0 11.0 0.01 0.08 0.03 95 1017.4
20260906110519 55 51 2.0 11.0 0.01 0.08 0.03 95 1017.4
20260906110036 55 38 3.0 10.0 0.01 0.08 0.03 95 1017.2
20260906105517 55 48 3.0 10.0 0.01 0.08 0.03 95 1017.2
20260906105018 55 47 2.0 10.0 0.01 0.08 0.03 95 1017.1
20260906104536 55 0 2.0 12.0 0.01 0.08 0.03 95 1017.1
20260906104016 55 44 3.0 12.0 0.01 0.08 0.03 94 1017.1
20260906103521 55 49 4.0 12.0 0.00 0.07 0.02 94 1017.0
20260906103038 55 9 3.0 10.0 0.00 0.07 0.02 94 1017.0
20260906102520 55 40 4.0 10.0 0.00 0.07 0.02 94 1017.0
20260906102018 55 28 1.0 8.0 0.00 0.07 0.02 94 1016.9
20260906101535 55 5 2.0 8.0 0.00 0.07 0.02 94 1017.1
20260906101019 55 17 3.0 8.0 0.00 0.07 0.02 94 1017.0
20260906100519 55 17 3.0 8.0 0.00 0.07 0.02 94 1017.0
20260906100041 55 13 2.0 7.0 0.00 0.07 0.02 94 1017.0
20260906095516 55 5 3.0 7.0 0.00 0.07 0.02 94 1017.0
20260906095016 55 15 2.0 5.0 0.00 0.07 0.02 94 1016.8
20260906094534 55 24 1.0 5.0 0.00 0.07 0.02 94 1016.8
20260906094017 55 352 1.0 5.0 0.00 0.07 0.02 94 1016.9
20260906093519 55 0 2.0 5.0 0.00 0.07 0.02 94 1016.8
20260906093056 55 28 1.0 5.0 0.00 0.07 0.02 94 1016.7
20260906092517 55 360 2.0 5.0 0.00 0.07 0.02 93 1016.6
20260906092023 55 360 2.0 5.0 0.00 0.07 0.02 93 1016.5
20260906091535 55 0 1.0 5.0 0.00 0.07 0.02 93 1016.5
20260906091018 55 360 1.0 4.0 0.00 0.07 0.02 93 1016.4
20260906090518 55 360 1.0 4.0 0.00 0.07 0.02 94 1016.4
20260906090038 55 9 1.0 4.0 0.00 0.07 0.02 93 1016.4
20260906085517 55 0 1.0 4.0 0.00 0.07 0.02 93 1016.4
20260906085017 55 360 1.0 4.0 0.00 0.07 0.02 93 1016.4
20260906084539 55 351 1.0 4.0 0.00 0.07 0.02 93 1016.4
20260906084017 55 0 1.0 3.0 0.00 0.07 0.02 93 1016.4
20260906083519 55 9 1.0 3.0 0.00 0.07 0.02 93 1016.4
20260906083037 55 14 1.0 3.0 0.00 0.07 0.02 93 1016.4
20260906082518 55 0 0.0 3.0 0.01 0.07 0.02 93 1016.5
20260906082021 55 38 0.0 2.0 0.02 0.07 0.02 92 1016.4
20260906081549 55 0 0.0 2.0 0.02 0.07 0.02 92 1016.4
20260906081019 55 0 0.0 3.0 0.02 0.07 0.02 92 1016.3
20260906080517 55 0 0.0 3.0 0.02 0.07 0.02 92 1016.3
20260906080039 55 0 0.0 3.0 0.02 0.07 0.02 91 1016.3
20260906075519 55 51 0.0 4.0 0.02 0.07 0.02 90 1016.3
20260906075017 56 0 0.0 4.0 0.02 0.07 0.02 90 1016.2
20260906074535 56 53 0.0 6.0 0.02 0.07 0.02 90 1016.2
20260906074016 56 360 2.0 6.0 0.02 0.07 0.02 89 1016.2
20260906073517 56 0 2.0 6.0 0.02 0.07 0.02 88 1016.3
20260906073049 57 0 1.0 6.0 0.02 0.07 0.02 87 1016.3
20260906072518 57 0 0.0 11.0 0.01 0.06 0.01 86 1016.2
20260906072018 57 47 1.0 11.0 0.00 0.05 0.00 85 1016.1
20260906071537 57 75 3.0 9.0 0.00 0.05 0.00 84 1015.9
20260906071019 57 51 3.0 10.0 0.00 0.05 0.00 83 1016.1
20260906070518 57 45 2.0 10.0 0.00 0.05 0.00 83 1016.2
20260906070040 57 49 2.0 8.0 0.00 0.05 0.00 83 1016.3
20260906065519 57 40 1.0 8.0 0.00 0.05 0.00 83 1016.3
20260906065019 57 0 1.0 8.0 0.00 0.05 0.00 83 1016.3
20260906064536 57 58 1.0 7.0 0.00 0.05 0.00 83 1016.2
20260906064016 57 0 2.0 8.0 0.00 0.05 0.00 83 1016.1
20260906063520 57 100 1.0 10.0 0.00 0.05 0.00 83 1016.1
20260906063039 57 132 2.0 12.0 0.00 0.05 0.00 83 1016.0
20260906062517 57 59 3.0 12.0 0.00 0.05 0.00 83 1016.0
20260906062021 57 96 3.0 12.0 0.00 0.05 0.00 84 1016.0
20260906061535 57 79 2.0 9.0 0.00 0.05 0.00 84 1016.0
20260906061019 57 49 2.0 9.0 0.00 0.05 0.00 83 1015.9
20260906060519 57 60 2.0 7.0 0.00 0.05 0.00 83 1016.0
20260906060037 57 78 1.0 9.0 0.00 0.05 0.00 83 1016.1
20260906055520 57 0 2.0 9.0 0.00 0.05 0.00 83 1016.2
20260906055018 57 52 2.0 9.0 0.00 0.05 0.00 82 1016.1
20260906054534 57 0 2.0 8.0 0.00 0.05 0.00 82 1016.1
20260906054017 57 0 2.0 11.0 0.00 0.05 0.00 82 1016.1
20260906053517 57 40 2.0 11.0 0.00 0.05 0.00 82 1016.1
20260906053038 57 0 3.0 14.0 0.00 0.05 0.00 82 1016.1
20260906052517 57 96 4.0 14.0 0.00 0.05 0.00 82 1016.2
20260906052018 57 86 6.0 14.0 0.00 0.05 0.00 82 1016.1
20260906051535 57 78 4.0 10.0 0.00 0.05 0.00 82 1016.1
20260906051019 57 78 3.0 10.0 0.00 0.05 0.00 82 1016.2
20260906050517 57 38 3.0 12.0 0.00 0.05 0.00 82 1016.2
20260906050040 57 51 3.0 12.0 0.00 0.05 0.00 82 1016.2
20260906045519 58 61 4.0 12.0 0.00 0.05 0.00 82 1016.3
20260906045016 58 44 3.0 12.0 0.00 0.05 0.00 82 1016.2
20260906044536 58 46 2.0 12.0 0.00 0.05 0.00 82 1016.3
20260906044017 58 61 2.0 13.0 0.00 0.05 0.00 82 1016.2
20260906043516 58 0 2.0 13.0 0.00 0.05 0.00 81 1016.0
20260906043044 58 74 3.0 13.0 0.00 0.05 0.00 81 1016.0
20260906042521 58 84 3.0 13.0 0.00 0.05 0.00 81 1016.0
20260906042020 58 61 4.0 13.0 0.00 0.05 0.00 80 1016.1
20260906041535 59 32 2.0 12.0 0.00 0.05 0.00 80 1016.1
20260906041020 59 65 4.0 14.0 0.00 0.05 0.00 80 1016.1
20260906040519 59 0 4.0 16.0 0.00 0.05 0.00 79 1016.1
20260906040045 59 90 5.0 16.0 0.00 0.05 0.00 79 1016.1
20260906035516 59 360 5.0 11.0 0.00 0.05 0.05 79 1016.1
20260906035019 59 360 2.0 17.0 0.00 0.05 0.05 79 1016.0
20260906034536 59 67 5.0 17.0 0.00 0.05 0.05 78 1016.0
20260906034017 60 92 4.0 17.0 0.00 0.05 0.05 79 1015.9
20260906033517 60 0 2.0 16.0 0.00 0.05 0.05 78 1016.0
20260906033034 60 67 7.0 16.0 0.00 0.05 0.05 78 1015.9
20260906032520 60 63 6.0 15.0 0.00 0.05 0.05 78 1015.9
20260906032019 60 46 4.0 16.0 0.00 0.05 0.05 78 1015.9
20260906031533 60 360 8.0 16.0 0.00 0.05 0.05 78 1015.9
20260906031019 60 35 5.0 14.0 0.00 0.05 0.05 79 1015.9
20260906030518 60 74 5.0 12.0 0.00 0.05 0.05 79 1015.9
20260906030040 60 360 4.0 12.0 0.00 0.05 0.05 79 1015.9
20260906025521 60 0 3.0 12.0 0.00 0.05 0.05 79 1015.9
20260906025021 60 0 3.0 12.0 0.00 0.05 0.05 79 1015.9
20260906024539 60 63 3.0 12.0 0.00 0.05 0.05 79 1015.9
20260906024017 60 40 2.0 12.0 0.00 0.05 0.05 79 1015.9
20260906023521 60 43 3.0 12.0 0.00 0.05 0.05 79 1015.8
20260906023049 61 92 3.0 15.0 0.00 0.05 0.05 79 1015.8
20260906022518 61 360 3.0 15.0 0.00 0.05 0.05 79 1015.7
20260906022020 61 360 4.0 13.0 0.00 0.05 0.05 79 1015.7
20260906021536 61 360 3.0 13.0 0.00 0.05 0.05 79 1015.7
20260906021017 61 360 4.0 13.0 0.00 0.05 0.05 79 1015.7
20260906020517 61 360 3.0 13.0 0.00 0.05 0.05 79 1015.6
20260906020039 62 360 4.0 13.0 0.00 0.05 0.05 79 1015.6
20260906015519 62 360 2.0 12.0 0.00 0.05 0.05 79 1015.6
20260906015019 62 360 2.0 10.0 0.00 0.05 0.05 79 1015.6
20260906014549 62 360 3.0 13.0 0.00 0.05 0.05 79 1015.6
20260906014019 62 360 4.0 13.0 0.00 0.05 0.05 79 1015.6
20260906013517 62 360 3.0 9.0 0.00 0.05 0.05 80 1015.7
20260906013040 62 0 1.0 9.0 0.00 0.05 0.05 80 1015.8
20260906012522 63 360 2.0 9.0 0.00 0.05 0.05 80 1015.7
20260906012018 63 360 2.0 9.0 0.00 0.05 0.05 80 1015.7
20260906011550 63 0 2.0 12.0 0.00 0.05 0.05 80 1015.7
20260906011020 63 360 3.0 12.0 0.00 0.05 0.05 80 1015.7
20260906010517 62 0 1.0 12.0 0.00 0.05 0.05 80 1015.7
20260906010039 62 360 4.0 11.0 0.00 0.05 0.05 81 1015.7
20260906005520 62 360 2.0 10.0 0.00 0.05 0.05 81 1015.7
20260906005021 62 360 3.0 10.0 0.00 0.05 0.05 81 1015.6
20260906004540 63 360 1.0 10.0 0.00 0.05 0.05 81 1015.7
20260906004026 63 360 2.0 10.0 0.00 0.05 0.05 81 1015.6
20260906003520 63 360 4.0 10.0 0.00 0.05 0.05 80 1015.6
20260906003034 63 360 2.0 12.0 0.00 0.05 0.05 80 1015.4
20260906002517 63 360 4.0 12.0 0.00 0.05 0.05 80 1015.4
20260906002018 63 0 4.0 9.0 0.00 0.05 0.05 80 1015.4
20260906001536 63 360 2.0 11.0 0.00 0.05 0.05 80 1015.3
20260906001020 63 0 4.0 11.0 0.00 0.05 0.05 80 1015.2
20260906000520 63 360 2.0 9.0 0.00 0.05 0.05 80 1015.1
20260906000038 63 0 3.0 9.0 0.00 0.05 0.05 80 1015.2
20260905235519 63 360 2.0 6.0 0.00 0.05 0.05 80 1015.2
20260905235018 63 360 1.0 8.0 0.00 0.05 0.05 80 1015.2
20260905234547 63 360 1.0 8.0 0.00 0.05 0.05 79 1015.2
20260905234017 63 360 1.0 6.0 0.00 0.05 0.05 79 1015.2
20260905233518 64 0 1.0 6.0 0.00 0.05 0.05 78 1015.1
20260905233040 64 360 1.0 6.0 0.00 0.05 0.05 78 1015.0
20260905232518 64 0 2.0 6.0 0.00 0.05 0.05 78 1015.0
20260905232020 64 360 0.0 8.0 0.00 0.05 0.05 78 1014.9
20260905231537 64 360 3.0 9.0 0.00 0.05 0.05 77 1014.9
20260905231017 65 360 2.0 9.0 0.00 0.05 0.05 77 1014.9
20260905230517 65 360 3.0 9.0 0.00 0.05 0.05 77 1014.9
20260905230042 65 360 1.0 10.0 0.00 0.05 0.05 76 1014.8
20260905225519 65 360 0.0 10.0 0.00 0.05 0.05 76 1014.8
20260905225018 65 360 2.0 10.0 0.00 0.05 0.05 77 1014.9
20260905224539 65 360 2.0 9.0 0.00 0.05 0.05 77 1014.8
20260905224017 65 0 2.0 6.0 0.00 0.05 0.05 77 1014.8
20260905223519 65 0 2.0 5.0 0.00 0.05 0.05 78 1014.7
20260905223038 66 360 0.0 5.0 0.00 0.05 0.05 78 1014.7
20260905222521 66 360 2.0 10.0 0.00 0.05 0.05 77 1014.7
20260905222019 66 0 2.0 10.0 0.00 0.05 0.05 76 1014.6
20260905221541 66 0 1.0 10.0 0.00 0.05 0.05 76 1014.5
20260905221019 66 360 3.0 10.0 0.00 0.05 0.05 75 1014.5